APJ355 RJFF-RKPC

Flight info

Callsign APJ355
Flight time 1h 7m
Altitude 32000
Route DGC A595 TAMNA DCT DUKAL
Aircraft A20N/M-SDE2E3FGHIRWXY/LB1

Departure

Time 2026-05-09 04:58
Airport Fukuoka Airport (RJFF)

Arrival

Time 2026-05-09 06:05
Airport Jeju International Airport (RKPC)
Time Latitude Longitude Altitude Speed Heading
2026-05-09 04:37 33.58893 130.44279 31 ft 0 kts 240°
2026-05-09 04:47 33.58899 130.44293 31 ft 4 kts 239°
2026-05-09 04:48 33.58914 130.44320 31 ft 4 kts 235°
2026-05-09 04:48 33.58930 130.44346 31 ft 4 kts 226°
2026-05-09 04:48 33.58950 130.44365 31 ft 4 kts 194°
2026-05-09 04:48 33.58964 130.44366 31 ft 0 kts 153°
2026-05-09 04:51 33.58945 130.44378 31 ft 13 kts 152°
2026-05-09 04:52 33.58857 130.44436 32 ft 16 kts 150°
2026-05-09 04:52 33.58783 130.44486 32 ft 15 kts 150°
2026-05-09 04:52 33.58703 130.44542 31 ft 15 kts 148°
2026-05-09 04:52 33.58616 130.44604 32 ft 14 kts 150°
2026-05-09 04:53 33.58531 130.44664 32 ft 14 kts 150°
2026-05-09 04:53 33.58461 130.44734 33 ft 12 kts 132°
2026-05-09 04:53 33.58381 130.44816 35 ft 28 kts 145°
2026-05-09 04:53 33.58194 130.44947 36 ft 31 kts 151°
2026-05-09 04:54 33.58011 130.45072 36 ft 30 kts 150°
2026-05-09 04:54 33.57832 130.45195 38 ft 30 kts 150°
2026-05-09 04:54 33.57823 130.45358 38 ft 18 kts 98°
2026-05-09 04:54 33.57737 130.45426 39 ft 17 kts 150°
2026-05-09 04:55 33.57606 130.45519 40 ft 24 kts 149°
2026-05-09 04:55 33.57476 130.45611 40 ft 16 kts 145°
2026-05-09 04:55 33.57450 130.45699 41 ft 0 kts 58°
2026-05-09 04:56 33.57461 130.45721 42 ft 13 kts 58°
2026-05-09 04:56 33.57515 130.45811 42 ft 5 kts 19°
2026-05-09 04:56 33.57526 130.45805 42 ft 0 kts 331°
2026-05-09 04:57 33.57531 130.45801 42 ft 11 kts 331°
2026-05-09 04:57 33.57831 130.45595 41 ft 86 kts 330°
2026-05-09 04:57 33.58541 130.45106 45 ft 144 kts 330°
2026-05-09 04:58 33.59392 130.44524 782 ft 137 kts 331°
2026-05-09 04:58 33.60236 130.43945 1630 ft 142 kts 328°
2026-05-09 04:58 33.61163 130.43317 2251 ft 167 kts 328°
2026-05-09 04:58 33.62228 130.42593 3057 ft 183 kts 330°
2026-05-09 04:59 33.63348 130.41842 4129 ft 185 kts 330°
2026-05-09 04:59 33.64487 130.41093 5232 ft 189 kts 330°
2026-05-09 04:59 33.65632 130.40284 6176 ft 192 kts 323°
2026-05-09 04:59 33.66653 130.39239 7093 ft 194 kts 311°
2026-05-09 05:00 33.67436 130.37934 7950 ft 193 kts 298°
2026-05-09 05:00 33.67911 130.36432 8852 ft 192 kts 287°
2026-05-09 05:00 33.68209 130.34867 9728 ft 193 kts 282°
2026-05-09 05:00 33.68417 130.33276 10568 ft 192 kts 280°
2026-05-09 05:01 33.68584 130.31681 11342 ft 193 kts 278°
2026-05-09 05:01 33.68739 130.30081 12131 ft 193 kts 278°
2026-05-09 05:01 33.68898 130.28483 12923 ft 193 kts 278°
2026-05-09 05:01 33.69067 130.26884 13730 ft 193 kts 278°
2026-05-09 05:02 33.69243 130.25284 14448 ft 193 kts 278°
2026-05-09 05:02 33.69407 130.23856 15059 ft 194 kts 277°
2026-05-09 05:02 33.69596 130.22239 15760 ft 195 kts 277°
2026-05-09 05:02 33.69786 130.20628 16417 ft 198 kts 277°
2026-05-09 05:03 33.69989 130.18890 16673 ft 222 kts 277°
2026-05-09 05:03 33.70215 130.16957 16949 ft 246 kts 277°
2026-05-09 05:03 33.70463 130.14826 17260 ft 268 kts 277°
2026-05-09 05:03 33.70687 130.12904 17523 ft 285 kts 277°
2026-05-09 05:04 33.70968 130.10500 18069 ft 295 kts 277°
2026-05-09 05:04 33.71257 130.08033 18792 ft 299 kts 276°
2026-05-09 05:04 33.71546 130.05557 19512 ft 301 kts 277°
2026-05-09 05:04 33.71837 130.03063 20253 ft 301 kts 276°
2026-05-09 05:05 33.72127 130.00567 20991 ft 302 kts 275°
2026-05-09 05:05 33.72418 129.98053 21690 ft 304 kts 275°
2026-05-09 05:05 33.72710 129.95527 22375 ft 306 kts 275°
2026-05-09 05:05 33.73003 129.92982 23012 ft 309 kts 275°
2026-05-09 05:06 33.73294 129.90446 23658 ft 311 kts 275°
2026-05-09 05:06 33.73591 129.87860 24180 ft 313 kts 274°
2026-05-09 05:06 33.73888 129.85259 24654 ft 316 kts 274°
2026-05-09 05:06 33.74189 129.82624 25129 ft 320 kts 274°
2026-05-09 05:07 33.74470 129.79969 25622 ft 321 kts 272°
2026-05-09 05:07 33.74548 129.77290 26103 ft 322 kts 266°
2026-05-09 05:07 33.74400 129.74602 26588 ft 323 kts 264°
2026-05-09 05:07 33.74173 129.71904 27032 ft 326 kts 263°
2026-05-09 05:08 33.73899 129.69190 27499 ft 328 kts 262°
2026-05-09 05:08 33.73603 129.66468 27960 ft 329 kts 262°
2026-05-09 05:08 33.73297 129.63731 28386 ft 331 kts 262°
2026-05-09 05:08 33.72989 129.60977 28781 ft 334 kts 262°
2026-05-09 05:09 33.72682 129.58201 29189 ft 336 kts 262°
2026-05-09 05:09 33.72376 129.55412 29587 ft 338 kts 262°
2026-05-09 05:09 33.72075 129.52636 29981 ft 340 kts 262°
2026-05-09 05:09 33.71769 129.49808 30345 ft 342 kts 262°
2026-05-09 05:10 33.71460 129.46957 30649 ft 345 kts 262°
2026-05-09 05:10 33.71149 129.44082 30957 ft 348 kts 262°
2026-05-09 05:10 33.70836 129.41190 31263 ft 350 kts 262°
2026-05-09 05:10 33.70519 129.38275 31559 ft 352 kts 262°
2026-05-09 05:11 33.70200 129.35358 31946 ft 352 kts 262°
2026-05-09 05:11 33.69881 129.32439 32127 ft 347 kts 262°
2026-05-09 05:11 33.69575 129.29639 32159 ft 330 kts 262°
2026-05-09 05:12 33.68992 129.24335 32157 ft 319 kts 262°
2026-05-09 05:12 33.68408 129.19049 32158 ft 320 kts 262°
2026-05-09 05:13 33.67820 129.13754 32159 ft 320 kts 262°
2026-05-09 05:13 33.67230 129.08455 32160 ft 320 kts 262°
2026-05-09 05:14 33.66637 129.03153 32161 ft 320 kts 262°
2026-05-09 05:14 33.66042 128.97850 32162 ft 320 kts 262°
2026-05-09 05:15 33.65444 128.92543 32165 ft 321 kts 262°
2026-05-09 05:15 33.64848 128.87272 32165 ft 321 kts 262°
2026-05-09 05:16 33.64245 128.81965 32166 ft 321 kts 262°
2026-05-09 05:16 33.63640 128.76655 32166 ft 321 kts 262°
2026-05-09 05:17 33.63041 128.71423 32166 ft 312 kts 262°
2026-05-09 05:17 33.62452 128.66299 32164 ft 309 kts 262°
2026-05-09 05:18 33.61863 128.61185 32162 ft 309 kts 262°
2026-05-09 05:18 33.61269 128.56057 32166 ft 310 kts 262°
2026-05-09 05:19 33.60673 128.50928 32167 ft 315 kts 262°
2026-05-09 05:19 33.60365 128.48279 32165 ft 326 kts 262°
2026-05-09 05:19 33.60046 128.45546 32162 ft 336 kts 262°
2026-05-09 05:20 33.59382 128.39863 32162 ft 353 kts 262°
2026-05-09 05:20 33.58694 128.34012 32165 ft 353 kts 262°
2026-05-09 05:21 33.58033 128.28277 32169 ft 333 kts 262°
2026-05-09 05:21 33.57732 128.25583 32165 ft 318 kts 263°
2026-05-09 05:21 33.57445 128.22988 32171 ft 311 kts 263°
2026-05-09 05:22 33.56876 128.17858 32167 ft 310 kts 263°
2026-05-09 05:22 33.56306 128.12760 32168 ft 310 kts 262°
2026-05-09 05:23 33.55727 128.07619 32166 ft 311 kts 263°
2026-05-09 05:23 33.55146 128.02478 32165 ft 311 kts 263°
2026-05-09 05:24 33.54562 127.97328 32167 ft 312 kts 263°
2026-05-09 05:24 33.54075 127.93046 32167 ft 312 kts 263°
2026-05-09 05:25 33.53387 127.87021 32168 ft 312 kts 262°
2026-05-09 05:25 33.52503 127.79324 32164 ft 312 kts 262°
2026-05-09 05:26 33.52009 127.75040 32168 ft 312 kts 262°
2026-05-09 05:26 33.51412 127.69880 32166 ft 312 kts 262°
2026-05-09 05:27 33.50813 127.64720 32169 ft 313 kts 262°
2026-05-09 05:27 33.50211 127.59555 32170 ft 313 kts 262°
2026-05-09 05:28 33.49607 127.54388 32172 ft 314 kts 262°
2026-05-09 05:28 33.49297 127.51748 32171 ft 325 kts 262°
2026-05-09 05:28 33.48977 127.49021 32166 ft 336 kts 262°
2026-05-09 05:29 33.48305 127.43311 32170 ft 356 kts 262°
2026-05-09 05:29 33.47611 127.37452 32173 ft 357 kts 262°
2026-05-09 05:30 33.46915 127.31606 32143 ft 344 kts 262°
2026-05-09 05:30 33.46578 127.28790 31651 ft 340 kts 262°
2026-05-09 05:30 33.46244 127.25994 31073 ft 339 kts 262°
2026-05-09 05:31 33.45910 127.23206 30550 ft 337 kts 262°
2026-05-09 05:31 33.45578 127.20444 30033 ft 333 kts 262°
2026-05-09 05:31 33.45249 127.17708 29527 ft 329 kts 262°
2026-05-09 05:31 33.44924 127.15014 29053 ft 324 kts 262°
2026-05-09 05:32 33.44603 127.12358 28579 ft 320 kts 262°
2026-05-09 05:32 33.44286 127.09742 28106 ft 317 kts 262°
2026-05-09 05:32 33.43970 127.07133 27616 ft 314 kts 262°
2026-05-09 05:32 33.43657 127.04558 27139 ft 312 kts 262°
2026-05-09 05:33 33.43344 127.01990 26685 ft 310 kts 263°
2026-05-09 05:33 33.43034 126.99441 26198 ft 309 kts 263°
2026-05-09 05:33 33.42725 126.96907 25730 ft 308 kts 263°
2026-05-09 05:33 33.42415 126.94372 25250 ft 307 kts 263°
2026-05-09 05:34 33.42105 126.91841 24785 ft 307 kts 263°
2026-05-09 05:34 33.41794 126.89312 24303 ft 307 kts 263°
2026-05-09 05:34 33.41485 126.86792 23817 ft 307 kts 263°
2026-05-09 05:34 33.41174 126.84265 23258 ft 306 kts 263°
2026-05-09 05:35 33.40863 126.81746 22775 ft 304 kts 263°
2026-05-09 05:35 33.40553 126.79243 22302 ft 303 kts 263°
2026-05-09 05:35 33.40248 126.76782 21818 ft 302 kts 264°
2026-05-09 05:35 33.39941 126.74299 21334 ft 301 kts 264°
2026-05-09 05:36 33.39633 126.71823 20848 ft 301 kts 264°
2026-05-09 05:36 33.39325 126.69342 20360 ft 301 kts 264°
2026-05-09 05:36 33.39117 126.66845 19796 ft 303 kts 271°
2026-05-09 05:36 33.39371 126.64544 19378 ft 302 kts 286°
2026-05-09 05:37 33.39599 126.63749 19219 ft 302 kts 291°
2026-05-09 05:37 33.40685 126.61640 18729 ft 307 kts 309°
2026-05-09 05:38 33.42347 126.60010 18113 ft 314 kts 325°
2026-05-09 05:38 33.44282 126.58747 17490 ft 318 kts 329°
2026-05-09 05:38 33.46234 126.57583 16961 ft 317 kts 330°
2026-05-09 05:38 33.48205 126.56411 16438 ft 316 kts 330°
2026-05-09 05:39 33.50169 126.55231 15901 ft 315 kts 330°
2026-05-09 05:39 33.52126 126.54046 15368 ft 315 kts 330°
2026-05-09 05:39 33.54077 126.52859 14825 ft 314 kts 330°
2026-05-09 05:39 33.56022 126.51670 14300 ft 313 kts 330°
2026-05-09 05:40 33.57961 126.50483 13752 ft 312 kts 330°
2026-05-09 05:40 33.59883 126.49306 13203 ft 309 kts 331°
2026-05-09 05:40 33.61800 126.48129 12675 ft 306 kts 331°
2026-05-09 05:40 33.63687 126.46971 12156 ft 304 kts 331°
2026-05-09 05:41 33.65559 126.45821 11619 ft 301 kts 332°
2026-05-09 05:41 33.67396 126.44692 11100 ft 299 kts 332°
2026-05-09 05:41 33.69254 126.43507 10547 ft 298 kts 328°
2026-05-09 05:41 33.70778 126.41941 10246 ft 289 kts 310°
2026-05-09 05:42 33.71690 126.39859 10131 ft 278 kts 290°
2026-05-09 05:42 33.72104 126.37636 10002 ft 267 kts 284°
2026-05-09 05:42 33.72391 126.35476 9848 ft 255 kts 283°
2026-05-09 05:42 33.72652 126.33417 9670 ft 245 kts 283°
2026-05-09 05:43 33.72912 126.31402 9322 ft 243 kts 283°
2026-05-09 05:43 33.73172 126.29418 9194 ft 238 kts 283°
2026-05-09 05:43 33.73432 126.27457 9182 ft 238 kts 283°
2026-05-09 05:43 33.73695 126.25487 9186 ft 239 kts 283°
2026-05-09 05:44 33.73954 126.23500 9182 ft 244 kts 280°
2026-05-09 05:44 33.73971 126.21435 9185 ft 249 kts 268°
2026-05-09 05:44 33.73774 126.19384 9184 ft 251 kts 265°
2026-05-09 05:44 33.73529 126.17310 9184 ft 251 kts 265°
2026-05-09 05:45 33.73279 126.15230 9184 ft 251 kts 265°
2026-05-09 05:45 33.73001 126.13152 9181 ft 253 kts 260°
2026-05-09 05:45 33.72420 126.11150 9183 ft 255 kts 250°
2026-05-09 05:45 33.71690 126.09205 9178 ft 256 kts 248°
2026-05-09 05:46 33.70930 126.07266 9180 ft 256 kts 248°
2026-05-09 05:46 33.70170 126.05329 9176 ft 256 kts 248°
2026-05-09 05:46 33.69315 126.03450 9176 ft 259 kts 238°
2026-05-09 05:46 33.68181 126.01759 9175 ft 260 kts 232°
2026-05-09 05:47 33.66976 126.00140 9175 ft 261 kts 231°
2026-05-09 05:47 33.65757 125.98529 9177 ft 261 kts 231°
2026-05-09 05:47 33.64531 125.96916 9177 ft 261 kts 229°
2026-05-09 05:47 33.63126 125.95519 9177 ft 264 kts 217°
2026-05-09 05:48 33.61574 125.94336 9174 ft 264 kts 213°
2026-05-09 05:48 33.60001 125.93205 9178 ft 265 kts 213°
2026-05-09 05:48 33.58419 125.92071 9178 ft 265 kts 213°
2026-05-09 05:48 33.56796 125.91016 9175 ft 266 kts 204°
2026-05-09 05:49 33.55035 125.90328 9177 ft 267 kts 197°
2026-05-09 05:49 33.53257 125.89776 9176 ft 267 kts 195°
2026-05-09 05:49 33.51453 125.89239 9176 ft 267 kts 195°
2026-05-09 05:49 33.49637 125.88703 9174 ft 268 kts 194°
2026-05-09 05:50 33.47784 125.88468 9176 ft 268 kts 181°
2026-05-09 05:50 33.45914 125.88520 9177 ft 269 kts 178°
2026-05-09 05:50 33.44048 125.88629 9174 ft 269 kts 178°
2026-05-09 05:50 33.42184 125.88743 9174 ft 269 kts 178°
2026-05-09 05:51 33.40322 125.88966 9172 ft 269 kts 167°
2026-05-09 05:51 33.38546 125.89598 9173 ft 268 kts 157°
2026-05-09 05:51 33.36860 125.90553 9173 ft 268 kts 152°
2026-05-09 05:51 33.35241 125.91584 9173 ft 268 kts 150°
2026-05-09 05:52 33.33600 125.92676 9172 ft 268 kts 149°
2026-05-09 05:52 33.31975 125.93778 9172 ft 268 kts 149°
2026-05-09 05:52 33.30364 125.94881 9170 ft 261 kts 149°
2026-05-09 05:52 33.28858 125.95944 9175 ft 242 kts 144°
2026-05-09 05:53 33.27798 125.97389 8859 ft 231 kts 113°
2026-05-09 05:53 33.27500 125.99218 8571 ft 223 kts 79°
2026-05-09 05:53 33.28084 126.00869 8273 ft 215 kts 50°
2026-05-09 05:53 33.29077 126.02199 7971 ft 214 kts 43°
2026-05-09 05:54 33.30142 126.03451 7706 ft 214 kts 41°
2026-05-09 05:54 33.31197 126.04681 7447 ft 213 kts 42°
2026-05-09 05:54 33.32256 126.05925 7197 ft 213 kts 43°
2026-05-09 05:54 33.33309 126.07175 6940 ft 213 kts 43°
2026-05-09 05:55 33.34357 126.08426 6680 ft 212 kts 43°
2026-05-09 05:55 33.35396 126.09671 6413 ft 211 kts 43°
2026-05-09 05:55 33.36428 126.10909 6151 ft 210 kts 43°
2026-05-09 05:55 33.37452 126.12139 5903 ft 208 kts 43°
2026-05-09 05:56 33.38458 126.13349 5725 ft 199 kts 44°
2026-05-09 05:56 33.39404 126.14489 5606 ft 187 kts 44°
2026-05-09 05:56 33.40292 126.15560 5485 ft 175 kts 44°
2026-05-09 05:56 33.41123 126.16561 5368 ft 163 kts 44°
2026-05-09 05:57 33.41895 126.17493 5243 ft 152 kts 44°
2026-05-09 05:57 33.42613 126.18357 5032 ft 146 kts 44°
2026-05-09 05:57 33.43321 126.19211 4734 ft 144 kts 44°
2026-05-09 05:57 33.43991 126.20018 4571 ft 132 kts 44°
2026-05-09 05:58 33.44607 126.20805 4308 ft 128 kts 50°
2026-05-09 05:58 33.45029 126.21735 4029 ft 128 kts 70°
2026-05-09 05:58 33.45141 126.22799 3997 ft 131 kts 90°
2026-05-09 05:58 33.44915 126.23863 4004 ft 133 kts 111°
2026-05-09 05:59 33.44497 126.24840 4005 ft 134 kts 115°
2026-05-09 05:59 33.44048 126.25819 4008 ft 134 kts 115°
2026-05-09 05:59 33.43599 126.26798 4005 ft 134 kts 115°
2026-05-09 05:59 33.43142 126.27784 4021 ft 136 kts 115°
2026-05-09 06:00 33.42694 126.28769 3979 ft 134 kts 114°
2026-05-09 06:00 33.42316 126.29771 4003 ft 132 kts 104°
2026-05-09 06:00 33.42187 126.30841 3933 ft 130 kts 83°
2026-05-09 06:00 33.42404 126.31905 3542 ft 137 kts 65°
2026-05-09 06:01 33.42882 126.32995 2883 ft 159 kts 57°
2026-05-09 06:01 33.43457 126.34119 2612 ft 153 kts 57°
2026-05-09 06:01 33.43992 126.35158 2475 ft 137 kts 57°
2026-05-09 06:01 33.44466 126.36086 2316 ft 129 kts 57°
2026-05-09 06:02 33.44928 126.36990 2063 ft 126 kts 57°
2026-05-09 06:02 33.45386 126.37886 1993 ft 126 kts 56°
2026-05-09 06:02 33.45844 126.38779 1998 ft 126 kts 57°
2026-05-09 06:02 33.45999 126.39080 2005 ft 126 kts 57°
2026-05-09 06:03 33.47608 126.42235 1469 ft 141 kts 57°
2026-05-09 06:03 33.47956 126.42908 1161 ft 145 kts 56°
2026-05-09 06:04 33.50147 126.47162 108 ft 115 kts 56°
2026-05-09 06:05 33.50518 126.47863 96 ft 80 kts 58°
2026-05-09 06:05 33.50720 126.48252 95 ft 37 kts 56°
2026-05-09 06:05 33.50844 126.48523 95 ft 37 kts 65°
2026-05-09 06:05 33.50886 126.48784 96 ft 26 kts 88°
2026-05-09 06:06 33.50876 126.48989 93 ft 21 kts 134°
2026-05-09 06:06 33.50758 126.49062 94 ft 10 kts 149°
2026-05-09 06:06 33.50733 126.49079 95 ft 6 kts 150°
2026-05-09 06:06 33.50704 126.49102 94 ft 4 kts 148°
2026-05-09 06:07 33.50680 126.49119 94 ft 4 kts 149°
2026-05-09 06:07 33.50667 126.49129 98 ft 0 kts 149°